Wind_Speed
22 22 23 24 25 26 27 28 29 30 30 30 30 30 30 31 32 33 34 34 35 36 36 36 36 37 38 39 40 41 42 43 44 45 46 46 46 47 48 47 46 44
23 23 24 25 26 27 28 29 30 31 31 31 31 31 31 32 32 33 34 35 35 36 36 37 37 38 39 40 41 42 42 44 45 46 47 47 48 48 49 49 47 45
23 23 24 25 26 27 29 30 31 31 31 31 31 31 31 32 33 34 35 35 36 37 37 37 38 39 40 41 42 43 43 44 46 47 47 48 48 49 50 50 48 45
24 24 25 25 26 28 29 30 31 31 31 31 31 31 31 32 33 34 35 35 36 37 38 38 39 39 40 41 42 43 44 45 46 46 47 48 49 49 50 49 47 44
25 25 25 25 26 28 29 30 31 31 30 30 30 31 32 32 33 34 34 35 37 38 39 39 40 40 40 41 43 44 45 46 46 46 47 48 49 50 49 47 45 42
26 25 24 25 27 28 29 30 31 31 30 30 30 31 32 33 34 34 35 36 38 39 40 40 41 41 41 42 43 44 45 46 46 47 47 48 49 49 48 46 43 40
27 26 25 27 28 29 30 32 32 31 31 30 30 31 32 33 34 35 36 38 39 40 40 40 41 41 41 42 43 44 45 46 46 47 47 48 49 48 46 44 41 39
26 27 28 29 30 31 32 32 32 32 32 30 30 31 31 32 34 35 37 38 39 40 40 40 40 41 42 42 43 44 45 45 46 47 47 47 48 46 43 40 38 37
26 27 29 30 31 33 34 33 32 32 32 31 30 31 31 32 33 35 36 38 39 40 41 42 41 41 42 43 43 44 45 45 46 47 47 46 46 43 40 37 36 35
26 27 30 31 33 34 34 33 33 32 31 31 31 31 32 33 34 36 38 40 41 40 40 41 41 42 42 43 43 43 44 45 45 46 46 45 43 40 36 35 36 36
27 28 30 32 33 35 35 34 33 32 32 33 33 33 34 35 36 38 40 41 41 41 41 42 42 42 43 43 43 43 44 44 45 45 45 43 40 37 35 35 36 36
28 29 31 33 34 35 35 34 33 33 33 34 34 35 36 37 38 40 41 42 43 43 44 44 43 43 43 43 43 43 44 44 44 44 44 42 39 37 36 36 35 35
29 31 33 34 35 35 35 34 34 34 34 34 34 36 37 38 39 41 43 43 44 44 44 44 43 43 42 42 42 43 43 43 43 43 42 40 38 37 36 35 34 34
28 31 33 34 35 35 35 35 35 34 33 34 35 36 38 39 41 42 43 44 44 44 44 43 43 42 42 42 42 42 42 41 41 41 40 38 36 35 34 33 32 32
29 31 33 34 34 35 36 36 35 34 34 35 36 37 39 40 42 43 44 44 44 44 44 43 43 42 42 42 41 41 41 40 40 40 38 36 35 34 33 32 31 31
30 31 33 34 35 36 36 36 35 35 35 36 36 38 40 42 43 44 44 45 45 45 44 43 43 42 41 41 40 40 40 39 40 39 37 35 34 32 31 31 31 31
31 32 33 34 35 36 36 36 36 36 36 37 38 39 41 43 44 45 45 46 46 45 44 43 42 42 40 39 40 39 39 39 39 38 35 34 33 31 29 30 30 31
32 33 34 35 36 36 37 37 38 38 38 39 40 41 42 44 46 46 46 46 46 45 44 42 42 41 39 39 39 39 38 39 39 37 34 33 33 30 29 29 30 30
33 34 35 36 37 38 38 39 40 40 40 41 42 42 43 45 47 47 46 46 46 45 43 42 42 41 39 38 38 38 37 38 38 35 33 32 32 31 30 29 30 30
34 35 36 37 38 39 40 41 42 42 42 43 44 45 44 45 46 47 47 46 46 46 43 42 42 41 38 38 37 36 36 37 36 34 32 32 31 31 31 31 30 30
35 36 37 38 40 40 41 43 43 44 44 45 46 47 46 45 45 47 48 47 47 46 44 41 40 39 37 37 37 35 34 35 35 33 32 31 30 30 31 32 32 31
36 37 38 39 40 41 43 44 45 46 47 48 48 48 47 45 44 46 48 48 46 45 43 40 39 38 37 37 37 34 32 33 34 34 32 30 30 30 31 32 33 32
36 38 39 40 41 42 43 45 47 49 49 50 50 50 48 46 45 46 47 47 45 44 42 40 38 38 36 36 36 33 31 32 34 34 32 31 30 30 31 32 33 33
37 38 39 40 41 42 44 47 49 50 51 51 51 51 50 47 45 44 44 45 43 43 42 40 37 36 35 35 35 32 30 32 34 33 33 32 31 30 31 32 33 33
37 38 39 40 41 42 45 48 50 51 52 52 52 52 50 47 44 42 42 43 42 42 41 39 36 34 34 35 35 32 32 34 35 33 33 33 31 30 30 31 32 34
37 38 39 38 39 43 48 51 51 51 53 54 52 50 48 47 45 43 42 42 41 40 39 38 36 35 34 36 35 33 34 36 36 33 32 32 31 30 29 30 32 34
Wind_Direction
301 304 307 309 312 314 315 315 315 314 312 310 310 310 312 314 316 317 317 317 317 317 317 316 315 315 315 315 315 316 317 317 317 316 316 317 317 318 317 315 313 311
300 302 304 307 309 311 312 313 313 313 311 310 308 309 310 313 315 316 316 316 316 316 316 315 315 315 315 316 317 317 317 317 317 317 317 318 318 318 317 315 313 311
299 301 303 305 307 308 309 310 312 312 310 308 307 307 309 312 314 315 315 315 315 315 315 315 316 316 316 317 317 317 317 317 317 318 318 318 318 318 316 315 313 311
299 300 301 303 306 307 307 309 311 311 309 307 306 306 308 311 313 314 315 315 315 315 316 316 316 317 317 317 317 317 317 317 317 318 318 318 318 318 316 314 313 310
300 300 300 302 306 307 308 310 311 310 308 307 306 307 309 311 312 313 314 314 315 316 317 317 318 318 318 317 317 316 316 317 318 318 319 319 318 318 316 314 312 308
303 303 300 303 309 311 312 312 311 310 309 309 308 308 309 310 311 312 314 316 317 318 318 318 318 318 318 317 316 317 317 318 319 319 319 319 318 317 315 313 310 306
307 306 303 306 311 314 315 314 312 311 310 309 308 308 309 310 312 314 316 319 319 319 319 319 319 318 318 317 317 318 318 319 319 320 321 320 318 317 316 313 310 307
307 307 307 310 313 315 316 314 312 311 309 309 308 308 309 312 315 317 318 319 318 318 318 319 319 319 318 318 318 318 319 319 320 321 321 320 318 317 316 315 313 310
306 307 309 311 313 314 314 313 312 310 309 308 308 308 309 311 314 316 318 318 319 320 321 321 320 319 318 318 319 319 319 320 320 321 320 320 318 317 317 316 315 313
305 308 310 311 312 312 312 312 311 310 308 306 306 306 308 310 313 315 317 319 320 321 321 320 319 319 319 319 320 320 319 320 321 321 320 320 318 316 316 316 314 312
305 309 309 310 312 311 311 311 310 308 307 306 306 307 310 312 314 317 318 319 319 319 319 319 320 320 320 320 320 319 319 320 321 320 320 319 317 314 314 315 314 311
305 307 308 312 313 311 310 310 308 309 308 309 310 312 314 316 317 318 319 319 318 317 318 319 320 320 320 320 320 319 319 320 320 320 319 318 315 313 313 314 313 310
305 305 307 310 311 310 309 308 309 310 311 311 312 314 315 316 316 317 318 318 318 318 318 319 319 320 320 319 318 318 319 320 320 319 318 316 314 312 312 312 311 309
305 305 305 307 309 308 307 307 309 311 311 312 314 314 315 315 316 318 318 318 318 318 318 318 319 319 319 318 318 318 318 319 319 318 316 315 313 311 310 309 308 307
303 304 305 307 308 306 305 306 309 311 312 314 315 315 315 316 318 318 318 318 317 317 317 318 319 318 318 318 318 317 317 318 318 317 315 313 311 309 308 307 306 306
302 304 305 306 305 305 306 307 310 313 314 315 315 314 315 317 318 317 317 316 316 316 316 317 317 317 317 317 317 316 316 317 317 315 313 312 310 308 307 306 305 305
303 305 306 306 305 306 307 310 312 313 314 314 314 315 316 317 317 316 315 315 314 315 316 316 316 316 316 317 316 315 315 316 316 315 313 312 310 308 306 305 304 305
305 306 306 306 306 308 309 311 312 313 313 313 314 316 316 316 315 314 314 313 313 314 315 315 314 314 315 316 315 314 314 316 316 315 313 311 309 307 305 305 304 305
305 306 307 307 308 309 310 310 311 311 312 312 313 315 315 313 312 312 312 312 312 313 314 314 313 313 315 316 314 313 314 315 316 314 311 309 308 306 306 306 305 304
306 307 307 307 308 309 309 310 310 311 311 312 312 313 313 312 311 310 311 311 311 312 313 314 313 313 314 315 314 313 313 315 315 313 310 307 306 306 306 306 305 303
305 306 306 307 308 308 309 309 310 311 311 311 311 310 310 310 310 309 309 309 310 312 314 314 313 313 313 314 313 312 312 315 315 313 309 306 305 306 306 306 305 303
305 305 305 305 306 307 309 309 310 310 310 310 309 308 309 309 309 308 307 307 309 311 312 313 311 309 309 311 312 309 309 314 316 313 309 306 304 304 305 304 303 302
302 302 303 304 305 307 308 309 309 309 309 308 307 307 307 307 307 305 304 304 307 309 310 310 308 305 305 310 311 307 305 312 316 313 310 308 304 302 302 302 301 301
299 301 303 304 306 307 308 308 308 308 307 307 306 305 306 307 306 304 301 302 305 307 307 308 306 303 305 311 312 303 299 308 315 314 310 309 305 301 300 300 300 301
298 301 302 304 305 306 307 306 306 307 306 305 303 302 303 304 303 300 297 299 303 305 306 308 307 304 304 309 310 301 296 304 313 314 310 309 306 302 299 299 300 301
297 299 300 302 304 304 303 304 305 306 306 304 302 303 305 306 302 295 292 297 302 304 305 307 306 302 301 305 307 302 297 302 310 312 310 307 306 303 301 301 301 300
Height
5906 5904 5903 5902 5901 5900 5899 5898 5896 5895 5893 5891 5889 5888 5886 5885 5883 5881 5879 5877 5875 5872 5870 5867 5865 5862 5860 5858 5855 5852 5850 5847 5844 5842 5839 5837 5834 5832 5829 5826 5823 5821
5903 5902 5900 5899 5898 5897 5896 5894 5893 5891 5890 5888 5886 5884 5883 5881 5879 5877 5875 5873 5871 5869 5867 5864 5861 5859 5856 5853 5850 5848 5845 5842 5839 5836 5834 5832 5829 5826 5823 5821 5818 5815
5901 5899 5898 5896 5895 5894 5893 5891 5890 5888 5886 5884 5883 5881 5879 5878 5876 5874 5872 5870 5868 5865 5863 5861 5858 5855 5852 5849 5846 5843 5840 5838 5835 5832 5829 5826 5823 5820 5817 5815 5812 5809
5898 5896 5895 5894 5892 5891 5890 5888 5886 5885 5883 5881 5879 5878 5876 5874 5872 5870 5868 5866 5864 5862 5859 5857 5854 5851 5848 5845 5842 5839 5836 5833 5831 5828 5825 5821 5818 5815 5812 5809 5806 5803
5894 5893 5891 5890 5889 5888 5886 5884 5883 5881 5880 5878 5876 5874 5872 5870 5869 5867 5865 5863 5860 5858 5855 5852 5849 5846 5843 5840 5838 5835 5832 5829 5826 5823 5820 5817 5813 5810 5807 5804 5801 5798
5891 5889 5888 5887 5886 5884 5882 5881 5879 5878 5876 5874 5872 5870 5868 5866 5865 5863 5861 5859 5856 5853 5850 5847 5844 5842 5839 5836 5833 5830 5827 5824 5821 5818 5815 5811 5808 5805 5802 5799 5796 5793
5887 5886 5885 5884 5882 5880 5879 5877 5875 5874 5873 5871 5869 5867 5865 5862 5860 5858 5856 5854 5851 5848 5846 5843 5840 5837 5834 5832 5828 5825 5822 5819 5816 5813 5810 5806 5802 5799 5796 5794 5791 5788
5883 5882 5881 5880 5878 5877 5875 5873 5872 5871 5869 5867 5865 5863 5861 5859 5856 5854 5852 5849 5847 5844 5841 5839 5836 5832 5830 5827 5824 5821 5817 5814 5811 5808 5805 5801 5797 5794 5792 5789 5787 5784
5879 5878 5877 5876 5875 5874 5872 5870 5869 5867 5866 5864 5862 5859 5857 5855 5853 5851 5848 5845 5842 5839 5836 5833 5831 5828 5825 5822 5819 5816 5813 5809 5806 5803 5800 5796 5793 5790 5787 5784 5782 5780
5875 5874 5873 5872 5872 5870 5869 5867 5865 5864 5862 5860 5858 5856 5853 5851 5849 5847 5844 5841 5837 5834 5831 5829 5827 5824 5821 5818 5814 5811 5808 5805 5801 5798 5795 5792 5789 5786 5783 5780 5778 5775
5871 5871 5870 5869 5868 5866 5865 5863 5862 5860 5858 5856 5854 5851 5849 5846 5844 5841 5839 5836 5833 5830 5828 5825 5822 5819 5816 5813 5810 5807 5804 5800 5797 5793 5790 5787 5784 5782 5779 5776 5774 5771
5868 5868 5867 5865 5864 5862 5861 5860 5858 5856 5854 5851 5848 5846 5843 5841 5839 5836 5834 5831 5828 5826 5823 5820 5817 5815 5812 5809 5806 5802 5799 5796 5793 5789 5786 5783 5780 5777 5775 5772 5770 5767
5865 5865 5863 5862 5860 5859 5858 5856 5854 5852 5849 5846 5844 5841 5839 5836 5834 5832 5829 5826 5823 5821 5818 5816 5813 5811 5808 5805 5802 5799 5795 5792 5789 5785 5782 5779 5776 5773 5771 5768 5766 5764
5862 5861 5860 5858 5857 5855 5854 5852 5850 5847 5844 5842 5839 5837 5834 5832 5830 5827 5824 5821 5819 5817 5814 5812 5809 5806 5804 5801 5798 5795 5792 5789 5785 5782 5779 5775 5772 5770 5767 5765 5763 5761
5859 5857 5856 5854 5853 5852 5850 5848 5845 5843 5840 5837 5835 5832 5830 5827 5825 5823 5820 5817 5815 5812 5810 5807 5805 5802 5799 5796 5794 5791 5788 5785 5782 5778 5775 5772 5769 5766 5764 5761 5760 5758
5856 5854 5852 5851 5849 5847 5846 5843 5841 5838 5835 5833 5831 5828 5826 5823 5821 5819 5816 5813 5811 5808 5806 5803 5800 5797 5795 5792 5790 5787 5784 5781 5778 5775 5772 5769 5766 5763 5761 5758 5756 5754
5851 5850 5848 5847 5845 5843 5841 5839 5836 5834 5831 5829 5826 5824 5822 5819 5817 5814 5812 5809 5806 5804 5801 5798 5796 5793 5791 5788 5785 5782 5780 5777 5775 5771 5768 5765 5763 5760 5758 5755 5753 5751
5846 5845 5844 5842 5841 5839 5836 5834 5831 5829 5827 5824 5822 5819 5817 5815 5812 5810 5807 5804 5802 5799 5797 5794 5791 5789 5787 5784 5781 5778 5776 5773 5770 5767 5765 5762 5759 5757 5755 5752 5750 5747
5842 5840 5839 5838 5836 5834 5831 5829 5826 5824 5821 5819 5817 5814 5812 5810 5807 5805 5803 5800 5797 5795 5793 5790 5788 5785 5783 5780 5777 5774 5772 5770 5767 5764 5761 5758 5756 5753 5751 5749 5746 5744
5837 5836 5835 5833 5831 5829 5827 5824 5821 5819 5816 5814 5811 5809 5807 5805 5802 5800 5798 5795 5793 5791 5789 5786 5784 5781 5778 5776 5773 5771 5769 5766 5763 5760 5757 5754 5752 5749 5747 5745 5743 5741
5833 5832 5831 5829 5826 5824 5822 5819 5816 5813 5810 5808 5806 5804 5802 5800 5798 5795 5792 5790 5788 5786 5784 5782 5779 5777 5774 5772 5769 5767 5765 5763 5760 5757 5754 5751 5748 5746 5743 5741 5739 5737
5829 5828 5826 5824 5822 5820 5817 5813 5810 5808 5805 5802 5800 5799 5797 5796 5793 5790 5787 5785 5783 5782 5780 5777 5775 5772 5769 5767 5765 5763 5762 5759 5756 5753 5750 5747 5744 5742 5739 5737 5735 5733
5825 5824 5822 5820 5817 5815 5812 5808 5805 5802 5799 5797 5795 5793 5792 5791 5788 5785 5781 5779 5778 5777 5775 5773 5770 5767 5764 5762 5761 5759 5758 5755 5753 5749 5746 5743 5741 5738 5736 5733 5731 5729
5821 5820 5817 5815 5812 5810 5807 5803 5800 5797 5794 5792 5790 5787 5786 5785 5783 5780 5776 5774 5773 5772 5771 5769 5765 5762 5760 5759 5757 5755 5753 5751 5749 5746 5743 5740 5737 5734 5732 5729 5727 5725
5817 5815 5813 5811 5808 5806 5802 5798 5795 5792 5789 5786 5783 5781 5779 5779 5777 5774 5771 5769 5768 5767 5765 5764 5761 5758 5756 5754 5753 5751 5749 5747 5745 5742 5739 5736 5733 5731 5728 5726 5723 5721
5812 5811 5809 5807 5805 5801 5797 5794 5791 5788 5784 5779 5776 5774 5773 5772 5769 5766 5765 5764 5763 5762 5760 5759 5756 5754 5752 5750 5749 5747 5745 5743 5741 5738 5735 5732 5729 5727 5725 5722 5720 5717